x

8413320 - Bar Harbor, Me (atgm1) Weather Station

3:54 - Mon 26th Jan 2015 All times are EST. -5 hours from GMT.

  • Wind
    9mph, 11mph gusts
  • Sea Temp 35°f
  • Ar Temp 16°f
  • Sea Pressure 1023.1mb
  • 8413320 - Bar Harbor, Me
  • 8413320 - Bar Harbor, Me

More Historic Weather Station data

Upgrade to MSW Pro to gain access to the past 30 days of data for over 8000 Wavebouys and Weather Stations around the globe.

Join Pro

Comparision Forecast

View Surf forecast
   
Seg 01/26 3:54 9 11 mph 1023.1mb 35f 16f
3:48 8 11 mph 1023mb 35f 16f
3:42 9 11 mph 1023.1mb 35f 16f
3:36 8 13 mph 1023.1mb 35f 16f
3:30 10 13 mph 1023.1mb 35f 16f
3:24 9 13 mph 1023mb 35f 16f
3:18 9 11 mph 1022.9mb 35f 16f
3:12 6 9 mph 1022.9mb 35f 16f
3:06 5 11 mph 1022.7mb 35f 16f
3:00 7 10 mph 1022.7mb 35f 16f
2:54 5 11 mph 1022.7mb 35f 16f
2:48 8 10 mph 1022.5mb 35f 16f
2:42 6 7 mph 1022.3mb 35f 16f
2:36 8 9 mph 1022.2mb 35f 16f
2:30 7 8 mph 1021.9mb 35f 16f
2:24 8 11 mph 1021.7mb 35f 15f
2:18 6 9 mph 1021.9mb 35f 15f
2:12 7 9 mph 1021.8mb 36f 15f
2:06 9 11 mph 1021.7mb 36f 15f
2:00 8 10 mph 1021.8mb 36f 15f
1:54 3 10 mph 1022mb 36f 15f
1:48 6 9 mph 1022mb 36f 15f
1:42 6 9 mph 1022.1mb 36f 15f
1:36 5 8 mph 1022.2mb 35f 14f
1:30 5 9 mph 1022.1mb 35f 14f
1:24 5 10 mph 1021.9mb 35f 14f
1:18 5 9 mph 1022mb 35f 13f
1:12 6 8 mph 1022mb 35f 13f
1:06 6 9 mph 1022mb 35f 13f
1:00 7 9 mph 1022.1mb 35f 13f
12:54 5 8 mph 1022.3mb 35f 13f
12:48 7 10 mph 1022.4mb 35f 13f
12:42 3 10 mph 1022.6mb 35f 13f
12:36 5 9 mph 1022.7mb 36f 12f
12:30 6 7 mph 1022.8mb 36f 12f
12:24 1 8 mph 1023.1mb 35f 12f
12:18 6 9 mph 1023.1mb 35f 12f
12:12 7 8 mph 1023.1mb 35f 11f
12:06 5 6 mph 1023.2mb 36f 11f
12:00 6 7 mph 1023.3mb 35f 11f
11:54 3 6 mph 1023.5mb 35f 11f
11:48 6 7 mph 1023.6mb 35f 11f
11:42 6 7 mph 1023.7mb 35f 11f
11:36  -  6 mph 1023.8mb 35f 11f
11:30 6 9 mph 1023.8mb 35f 10f
11:24 5 8 mph 1023.8mb 35f 11f
11:18 6 8 mph 1023.8mb 34f 10f
11:12 7 9 mph 1023.8mb 34f 10f
11:06 8 10 mph 1023.8mb 34f 10f
11:00 9 11 mph 1023.7mb 34f 10f
10:54 6 11 mph 1023.8mb 34f 10f
10:48 8 11 mph 1023.7mb 34f 9f
10:42 9 14 mph 1023.7mb 34f 9f
10:36 7 11 mph 1023.8mb 34f 10f
10:30 7 15 mph 1023.7mb 34f 10f
10:24 9 13 mph 1023.7mb 34f 9f
10:18 8 11 mph 1023.7mb 34f 8f
10:12 9 14 mph 1023.6mb 34f 9f
10:06 9 14 mph 1023.5mb 34f 9f
10:00 8 11 mph 1023.7mb 33f 9f
9:54 6 8 mph 1023.7mb 33f 9f
9:48 6 10 mph 1023.7mb 33f 9f
9:42 8 10 mph 1023.7mb 33f 8f
9:36 8 11 mph 1023.4mb 33f 8f
9:30 8 13 mph 1023.6mb 33f 8f
9:24 10 14 mph 1023.3mb 33f 8f
9:18 9 14 mph 1023.4mb 33f 8f
9:12 10 13 mph 1023.3mb 33f 8f
9:06 11 14 mph 1023.2mb 33f 8f
9:00 10 14 mph 1023.2mb 33f 8f
8:54 10 15 mph 1023.2mb 33f 8f
8:48 10 14 mph 1023.1mb 33f 8f
8:42 13 16 mph 1023mb 33f 7f
8:36 13 17 mph 1022.9mb 33f 7f
8:30 13 16 mph 1022.8mb 33f 7f
8:24 11 14 mph 1022.6mb 33f 7f
8:18 10 15 mph 1022.4mb 33f 7f
8:12 11 17 mph 1022.3mb 33f 8f
8:06 13 17 mph 1022.1mb 33f 8f
8:00 14 18 mph 1022.2mb 33f 8f
7:54 15 20 mph 1022mb 33f 8f
7:48 16 20 mph 1022mb 33f 7f
7:42 16 20 mph 1022mb 33f 8f
7:36 14 17 mph 1022mb 33f 8f
7:30 14 16 mph 1022mb 33f 7f
7:24 14 18 mph 1021.9mb 33f 7f
7:18 14 18 mph 1021.8mb 33f 7f
7:12 15 20 mph 1021.6mb 33f 7f
7:06 16 20 mph 1021.4mb 33f 7f
7:00 16 20 mph 1021.3mb 33f 7f
6:54 15 20 mph 1021.3mb 33f 7f
6:48 16 20 mph 1021.1mb 33f 7f
6:42 17 21 mph 1021mb 33f 7f
6:36 14 18 mph 1020.9mb 33f 8f
6:30 14 17 mph 1020.8mb 33f 7f
6:24 13 17 mph 1020.8mb 33f 7f
6:18 14 17 mph 1020.7mb 33f 7f
6:12 14 18 mph 1020.7mb 33f 7f
6:06 16 20 mph 1020.5mb 33f 7f
6:00 14 17 mph 1020.5mb 33f 7f
5:54 11 15 mph 1020.4mb 34f 7f
5:48 13 17 mph 1020.4mb 34f 7f
5:42 14 16 mph 1020.1mb 34f 7f
5:36 13 16 mph 1020mb 34f 7f
5:30 11 15 mph 1020mb 34f 7f
5:24 13 16 mph 1019.8mb 34f 7f
5:18 14 18 mph 1019.7mb 34f 7f
5:12 15 20 mph 1019.5mb 34f 8f
5:06 15 21 mph 1019.5mb 34f 8f
5:00 14 18 mph - - -
4:54 13 18 mph 1019.3mb 33f 8f
4:48 14 18 mph 1019.3mb 33f 8f
4:42 16 20 mph 1019.1mb 33f 9f
4:36 16 20 mph 1019.1mb 34f 8f
4:30 18 22 mph 1019mb 34f 9f
4:24 18 22 mph 1019.1mb 34f 9f
4:18 16 22 mph 1018.9mb 34f 9f
4:12 15 23 mph 1018.9mb 34f 9f
4:06 15 18 mph 1018.8mb 34f 10f
4:00 13 16 mph 1018.7mb 34f 10f
3:54 13 16 mph 1018.5mb 34f 9f
3:48 10 14 mph 1018.6mb 34f 9f
3:42 9 11 mph 1018.7mb 34f 8f
3:36 9 11 mph 1018.8mb 34f 9f
3:30 9 11 mph 1018.7mb 34f 9f
3:24 9 13 mph 1018.6mb 34f 9f
3:18 8 11 mph 1018.5mb 34f 9f
3:12 9 11 mph 1018.4mb 34f 9f
3:06 11 15 mph 1018.2mb 33f 9f
3:00 10 16 mph 1018.2mb 33f 9f
2:54 14 17 mph 1018.1mb 33f 9f
2:48 14 20 mph 1017.9mb 33f 10f
2:42 15 20 mph 1017.8mb 33f 10f
2:36 14 18 mph 1017.7mb 33f 10f
2:30 15 20 mph 1017.6mb 33f 10f
2:24 17 21 mph 1017.5mb 34f 10f
2:18 15 18 mph 1017.4mb 34f 10f
2:12 14 18 mph 1017.3mb 33f 10f
2:06 15 21 mph 1017.2mb 33f 10f
2:00 16 20 mph 1017.1mb 33f 10f
1:54 16 20 mph 1016.9mb 33f 10f
1:48 16 21 mph 1016.9mb - 10f
1:42 16 21 mph 1016.9mb - 10f
1:36 16 22 mph 1016.9mb - 10f
1:30 17 21 mph 1016.8mb 35f 10f
1:24 15 21 mph 1016.7mb 35f 10f
1:18 16 21 mph 1016.6mb 35f 10f
1:12 15 23 mph 1016.3mb 35f 11f
1:06 17 24 mph 1016.2mb 35f 11f
1:00 21 24 mph 1016mb 35f 11f
12:54 16 22 mph 1015.9mb 35f 10f
12:48 16 22 mph 1015.8mb 37f 11f
12:42 17 22 mph 1015.7mb 37f 11f
12:36 17 23 mph 1015.6mb 37f 11f
12:30 17 23 mph 1015.5mb 37f 11f
12:24 22 28 mph 1015.4mb 37f 11f
12:18 23 30 mph 1015.3mb 37f 11f
12:12 23 28 mph 1015.1mb 37f 12f
12:06 24 28 mph 1015.1mb 37f 11f
12:00 18 24 mph 1015.1mb 37f 11f
Dom 01/25 11:54 20 25 mph 1015mb 37f 11f
11:48 22 28 mph 1014.8mb 37f 11f
11:42 22 28 mph 1014.7mb 36f 11f
11:36 21 23 mph 1014.6mb 36f 11f
11:30 22 29 mph 1014.7mb 36f 11f
11:24 20 25 mph 1014.6mb 36f 11f
11:18 17 25 mph 1014.6mb 36f 11f
11:12 16 24 mph 1014.4mb 36f 11f
11:06 18 24 mph 1014.3mb 36f 11f
11:00 17 26 mph 1014.1mb 35f 11f
10:54 16 23 mph 1014mb 35f 11f
10:48 18 24 mph 1013.8mb 35f 11f
10:42 18 25 mph 1013.7mb 35f 11f
10:36 17 28 mph 1013.7mb 35f 11f
10:30 17 23 mph 1013.5mb 35f 11f
10:24 18 26 mph 1013.4mb 35f 11f
10:18 15 23 mph 1013.3mb 35f 11f
10:12 15 22 mph 1013.2mb 34f 11f
10:06 16 24 mph 1013mb 34f 11f
10:00 16 24 mph 1012.8mb 34f 12f
9:54 20 22 mph 1012.6mb 34f 11f
9:48 13 21 mph 1012.5mb 34f 12f
9:42 16 20 mph 1012.5mb 34f 12f
9:36 14 18 mph 1012.3mb 34f 12f
9:30 16 20 mph 1012.2mb 34f 12f
9:24 16 21 mph 1012.1mb 34f 12f
9:18 20 24 mph 1012.1mb 34f 12f
9:12 20 31 mph 1011.9mb 34f 12f
9:06 20 28 mph 1011.7mb 35f 12f
9:00 20 29 mph 1011.6mb 35f 13f
8:54 24 32 mph 1011.5mb 34f 13f
8:48 21 30 mph 1011.4mb 34f 13f
8:42 18 25 mph 1011.2mb 35f 13f
8:36 20 23 mph 1011mb 35f 13f
8:30 17 24 mph 1010.9mb 35f 13f
8:24 20 28 mph 1010.6mb 35f 14f
8:18 17 24 mph 1010.4mb 35f 14f
8:12 20 26 mph 1010.4mb 36f 14f
8:06 22 26 mph 1010.3mb 36f 14f
8:00 20 25 mph 1010.1mb 36f 14f
7:54 18 25 mph 1009.9mb 36f 14f
7:48 21 29 mph 1009.7mb 36f 14f
7:42 20 28 mph 1009.5mb 36f 15f
7:36 23 32 mph 1009.2mb 36f 15f
7:30 26 34 mph 1008.9mb 36f 15f
7:24 22 28 mph 1008.7mb 36f 16f
7:18 23 29 mph 1008.4mb 36f 17f
7:12 26 33 mph 1008.2mb 36f 17f
7:06 26 33 mph 1008.1mb 36f 17f
7:00 24 30 mph 1007.9mb 36f 17f
6:54 23 31 mph 1007.6mb 36f 17f
6:48 26 36 mph 1007.4mb 36f 17f
6:42 30 37 mph 1007.2mb 36f 18f
6:36 23 32 mph 1006.9mb 36f 19f
6:30 25 33 mph 1006.6mb 36f 20f
6:24 26 31 mph 1006.4mb 36f 20f
6:18 22 25 mph 1006.2mb 36f 20f
6:12 22 28 mph 1006.1mb 36f 21f
6:06 22 28 mph 1005.6mb 36f 21f
6:00 18 26 mph 1005.4mb 36f 21f
5:54 20 23 mph 1005.4mb 37f 21f
5:48 18 24 mph 1005.2mb 37f 21f
5:42 15 22 mph 1005mb 37f 22f
5:36 15 23 mph 1004.8mb 37f 21f
5:30 16 23 mph 1004.5mb 37f 22f
5:24 16 26 mph 1004.3mb 37f 22f
5:18 20 26 mph 1004.1mb 37f 22f
5:12 17 22 mph 1003.9mb 37f 22f
5:06 17 22 mph 1003.8mb 37f 22f
5:00 15 25 mph 1003.5mb 37f 22f
4:54 17 22 mph 1003.4mb 37f 23f
4:48 18 25 mph 1003.3mb 37f 23f
4:42 13 21 mph 1003.1mb 37f 23f
4:36 14 22 mph 1003mb 37f 23f
4:30 17 22 mph 1002.8mb 37f 24f
4:24 17 23 mph 1002.5mb 37f 24f
4:18 21 29 mph 1002.4mb 37f 24f
4:12 16 22 mph 1002.3mb 37f 24f
4:06 16 21 mph 1002.2mb 37f 24f
4:00 16 24 mph 1002mb 37f 24f
3:54 21 29 mph 1001.9mb 37f 25f
3:48 16 28 mph 1001.7mb 37f 25f
3:42 20 28 mph 1001.6mb 37f 25f
3:36 16 26 mph 1001.5mb 37f 26f
3:30 17 28 mph 1001.3mb 37f 26f
3:24 18 25 mph 1001.1mb 36f 26f
3:18 23 28 mph 1001mb 37f 26f
3:12 15 21 mph 1000.7mb 37f 26f
3:06 17 24 mph 1000.6mb 37f 27f
3:00 16 26 mph 1000.4mb 37f 27f
2:54 20 24 mph 1000.2mb 37f 27f
2:48 18 26 mph 1000.1mb 37f 27f
2:42 22 29 mph 999.9mb 37f 27f
2:36 20 25 mph 999.7mb 37f 28f
2:30 20 26 mph 999.5mb 37f 28f
2:24 16 25 mph 999.3mb 37f 29f
2:18 20 29 mph 999.1mb 37f 28f
2:12 21 28 mph 999mb 37f 29f
2:06 22 26 mph 998.9mb 37f 29f
2:00 24 28 mph 998.7mb 37f 29f
1:54 22 26 mph 998.6mb 37f 29f
1:48 22 26 mph 998.5mb 37f 29f
1:42 22 29 mph 998.3mb 36f 29f
1:36 20 29 mph 998.3mb 36f 29f
1:30 23 29 mph 998.3mb 37f 29f
1:24 20 25 mph 998.1mb 37f 29f
1:18 18 23 mph 998.1mb 37f 29f
1:12 21 28 mph 998mb 37f 29f
1:06 24 28 mph 998mb 37f 29f
1:00 24 29 mph 997.9mb 37f 29f
12:54 24 29 mph 997.7mb 38f 29f
12:48 26 30 mph 997.8mb 38f 29f
12:42 26 34 mph 997.8mb 38f 29f
12:36 24 32 mph 997.6mb 38f 30f
12:30 30 37 mph 997.5mb 38f 30f
12:24 24 28 mph 997.5mb 38f 30f
12:18 22 32 mph 997.2mb 38f 31f
12:12 28 32 mph 997.2mb 38f 31f
12:06 22 29 mph 997mb 38f 31f
12:00 22 25 mph 996.9mb 38f 31f
11:54 23 29 mph 996.8mb 38f 31f
11:48 18 26 mph 996.7mb 38f 32f
11:42 24 33 mph 996.6mb 38f 32f
11:36 23 29 mph 996.6mb 38f 32f
11:30 25 34 mph 996.5mb 37f 32f
11:24 23 34 mph 996.4mb 38f 32f
11:18 28 36 mph 996.3mb 38f 31f
11:12 22 26 mph 996mb 38f 32f
11:06 21 24 mph 995.9mb 38f 33f
11:00 15 26 mph 995.7mb 38f 33f
10:54 18 28 mph 995.5mb 38f 32f
10:48 16 31 mph 995.5mb 38f 30f
10:42 30 38 mph 995.6mb 38f 31f
10:36 20 28 mph 995.1mb 38f 35f
10:30 20 29 mph 994.9mb 38f 36f
10:24 21 32 mph 994.8mb 38f 36f
10:18 21 28 mph 994.7mb 38f 36f
10:12 16 28 mph 994.6mb 38f 36f
10:06 16 24 mph 994.5mb 38f 36f
10:00 11 25 mph 994.3mb 38f 35f
9:54 15 24 mph 994.2mb 38f 35f
9:48 16 22 mph 994.2mb 38f 35f
9:42 15 23 mph 994.1mb 37f 35f
9:36 13 23 mph 994mb 37f 35f
9:30 17 26 mph 993.9mb 37f 35f
9:24 15 22 mph 993.9mb 37f 35f
9:18 13 22 mph 993.9mb 37f 34f
9:12 11 26 mph 993.8mb 37f 34f
9:06 15 20 mph 993.7mb 37f 34f
9:00 14 20 mph 993.7mb 37f 34f
8:54 14 22 mph 993.6mb 37f 34f
8:48 15 21 mph 993.4mb 37f 33f
8:42 14 18 mph 993.3mb 37f 33f
8:36 13 24 mph 993.2mb 37f 33f
8:30 15 20 mph 993.1mb 37f 33f
8:24 13 21 mph 993.1mb 37f 33f
8:18 14 17 mph 993mb 37f 32f
8:12 13 20 mph 993mb 37f 32f
8:06 11 18 mph 992.9mb 37f 32f
8:00 16 22 mph 992.8mb 37f 32f
7:54 14 24 mph 992.7mb 37f 32f
7:48 13 20 mph 992.7mb 37f 31f
7:42 13 17 mph 992.6mb 37f 31f
7:36 11 20 mph 992.6mb 37f 31f
7:30 13 16 mph 992.5mb 37f 31f
7:24 11 21 mph 992.4mb 37f 31f
7:18 11 17 mph 992.3mb 37f 31f
7:12 13 16 mph 992.1mb 38f 31f
7:06 11 16 mph 992mb 38f 31f
7:00 11 17 mph 991.8mb 38f 31f
6:54 10 16 mph 991.7mb 38f 30f
6:48 10 15 mph 991.6mb 37f 30f
6:42 10 15 mph 991.5mb 37f 30f
6:36 10 16 mph 991.3mb 37f 30f
6:30 11 16 mph 991.2mb 37f 30f
6:24 8 13 mph 991mb 37f 30f
6:18 9 20 mph 990.9mb 37f 31f
6:12 8 15 mph 990.8mb 37f 31f
6:06 10 16 mph 990.7mb 37f 30f
6:00 10 15 mph 990.6mb 37f -
5:54 9 15 mph 990.5mb 37f -
5:48 10 16 mph 990.4mb 37f 30f
5:42 9 14 mph 990.3mb 37f 30f
5:36 9 17 mph 990.3mb 37f 31f
5:30 10 21 mph 990.2mb 37f 30f
5:24 11 16 mph 990.1mb 37f 31f
5:18 11 17 mph 990mb 37f 31f
5:12 10 18 mph 989.9mb 36f 31f
5:06 11 17 mph 989.8mb 36f 31f
5:00 13 20 mph 989.6mb 37f 31f
4:54 11 17 mph 989.3mb 37f 30f
4:48 10 17 mph 989.2mb 37f 30f
4:42 13 20 mph 989.1mb 37f 30f
4:36 11 17 mph 988.9mb 37f 30f
4:30 10 16 mph 988.9mb 37f 30f
4:24 10 18 mph 988.7mb 36f 30f
4:18 11 17 mph 988.6mb 36f 31f
4:12 11 18 mph 988.6mb 36f 30f
4:06 10 15 mph 988.5mb 36f 30f
4:00 11 16 mph 988.4mb 36f 30f
3:54 9 18 mph 988.4mb 36f 30f
3:48 13 17 mph 988.2mb 36f 31f
3:42 13 17 mph 988.1mb 36f 30f
3:36 13 20 mph 987.9mb 35f 30f
3:30 15 22 mph 987.7mb 36f 30f
3:24 11 18 mph 987.5mb 36f 30f
3:18 13 18 mph 987.2mb 36f 30f
3:12 14 18 mph 987.1mb 36f 30f
3:06 13 20 mph 987.1mb 36f 30f
3:00 14 21 mph 987mb 36f 30f
2:54 15 20 mph 986.8mb 36f 30f
2:48 16 21 mph 986.6mb 36f 30f
2:42 14 18 mph 986.4mb 36f 30f
2:36 13 21 mph 986.2mb 37f 30f
2:30 13 22 mph 986.2mb 36f 30f
2:24 15 20 mph 986.1mb 36f 30f
2:18 15 18 mph 986mb 36f 30f
2:12 15 21 mph 985.8mb 36f 30f
2:06 16 22 mph 985.7mb 36f 30f
2:00 15 21 mph 985.6mb 36f 29f
1:54 14 18 mph 985.5mb 36f 29f
1:48 14 18 mph 985.4mb 36f -
1:42 11 18 mph 985.2mb 36f -
1:36 13 20 mph 985mb 36f -
1:30 16 24 mph 984.8mb 36f 29f
1:24 16 24 mph 984.6mb 36f 29f
1:18 14 20 mph 984.4mb 35f 29f
1:12 14 21 mph 984.2mb 35f 29f
1:06 14 21 mph 983.9mb 36f 29f
1:00 15 21 mph 983.9mb 36f 29f
12:54 16 24 mph 983.9mb 36f 29f
12:48 21 24 mph 983.8mb 36f 29f
12:42 16 21 mph 983.7mb 37f 29f
12:36 18 24 mph 983.7mb 37f 29f
12:30 20 23 mph 983.7mb 36f 29f
12:24 17 22 mph 983.6mb 36f 29f
12:18 16 20 mph 983.7mb 36f 29f
12:12 17 24 mph 983.5mb 36f 29f
12:06 20 23 mph 983.4mb 35f 28f
12:00 21 26 mph 983.4mb 35f 29f
Sáb 01/24 11:54 20 24 mph 983.3mb 36f 29f
11:48 22 25 mph 983.2mb 36f 29f
11:42 22 28 mph 983.2mb 36f 29f
11:36 23 26 mph 983.2mb 36f 29f
11:30 22 25 mph 983.2mb 36f 29f
11:24 22 26 mph 983.2mb 36f 30f
11:18 22 29 mph 983.2mb 36f 30f
11:12 23 28 mph 983.1mb 36f 30f
11:06 21 25 mph 983.1mb 35f 30f
11:00 22 26 mph 983.1mb 35f 30f
10:54 21 25 mph 983.1mb 35f 30f
10:48 20 23 mph 983.1mb 35f 30f
10:42 20 23 mph 983mb 35f 30f
10:36 21 25 mph 982.9mb 35f 30f
10:30 18 25 mph 982.6mb 36f 30f
10:24 20 22 mph 982.4mb 36f 30f
10:18 17 23 mph 982.2mb 36f 30f
10:12 20 23 mph 982.1mb 36f 30f
10:06 18 24 mph 982.1mb 36f 30f
10:00 20 23 mph 981.9mb 36f 30f
9:54 17 24 mph 981.8mb 36f 30f
9:48 18 23 mph 981.8mb 36f 30f
9:42 20 23 mph 981.9mb 36f 30f
9:36 17 21 mph 981.9mb 35f 30f
9:30 17 22 mph 981.8mb 35f 30f
9:24 16 22 mph 981.8mb 35f 30f
9:18 18 25 mph 981.8mb 35f 30f
9:12 17 21 mph 981.8mb 35f 30f
9:06 17 25 mph 982.1mb 35f 30f
9:00 18 25 mph 982.1mb 35f 30f
8:54 20 25 mph 982mb 35f 30f
8:48 16 23 mph 982mb 35f 30f
8:42 16 23 mph 982.2mb 35f 30f
8:36 17 23 mph 982.2mb 35f 30f
8:30 17 24 mph 982.6mb 35f 30f
8:24 18 23 mph 982.8mb 35f 30f
8:18 16 23 mph 982.7mb 35f 30f
8:12 17 23 mph 982.8mb 35f 30f
8:06 17 24 mph 983mb 35f 30f
8:00 17 24 mph 983.4mb 35f 30f
7:54 15 20 mph 983.6mb 35f 30f
7:48 14 18 mph 983.5mb 35f 30f
7:42 15 21 mph 983.5mb 35f 30f
7:36 15 20 mph 983.8mb 35f 31f
7:30 15 20 mph 984.1mb 35f 31f
7:24 14 20 mph 984.6mb 35f 31f
7:18 11 17 mph 984.9mb 35f 31f
7:12 11 17 mph 985mb 35f 31f
7:06 10 14 mph 984.7mb 35f 31f
7:00 8 15 mph 984.3mb 35f 31f
6:54 11 20 mph 984.3mb 35f 31f
6:48 10 15 mph 984.4mb 35f 31f
6:42 11 17 mph 984.5mb 36f 31f
6:36 11 18 mph 984.8mb 35f 31f
6:30 16 21 mph 984.7mb 35f 31f
6:24 14 17 mph 985.9mb 36f 31f
6:18 11 17 mph 986.4mb 36f 31f
6:12 10 18 mph 986.5mb 36f 31f
6:06 8 15 mph 986.3mb 36f 31f
6:00 9 15 mph 987mb 36f 31f
5:54 10 18 mph 987.1mb 36f 31f
5:48 10 20 mph 987.9mb 36f 31f
5:42 16 21 mph 987.7mb 36f 31f
5:36 17 21 mph 987.9mb 36f 31f
5:30 15 20 mph 988.4mb 36f 31f
5:24 15 17 mph 989mb 36f 31f
5:18 16 20 mph 989.2mb 36f 31f
5:12 17 20 mph 989.8mb 36f 31f
5:06 15 17 mph 990.4mb 36f 31f
5:00 14 16 mph 990.8mb 36f 31f
4:54 14 16 mph 991mb 36f 31f
4:48 13 14 mph 991.5mb 36f 31f
4:42 10 13 mph 991.7mb 36f 31f
4:36 11 14 mph 991.9mb 36f 31f
4:30 10 11 mph 992.1mb 36f 31f
4:24 10 11 mph 992.5mb 36f 31f
4:18 7 9 mph 992.8mb 36f 31f
4:12 8 10 mph 993.1mb 36f 31f
4:06 7 9 mph 993.2mb 36f 31f
4:00 6 7 mph 993.5mb 36f 31f
3:54 5 6 mph 994.1mb 36f 31f
3:48 5 6 mph 994.5mb 36f 31f
3:42 5 6 mph 994.5mb 36f 31f
3:36 6 10 mph 994.2mb 36f 31f
3:30 7 10 mph 994.3mb 36f 31f
3:24 6 10 mph 994.6mb 36f 31f
3:18 8 10 mph 994.1mb 36f 31f
3:12 9 11 mph 994.1mb 36f 31f
3:06 11 14 mph 994.5mb 36f 31f
3:00 11 15 mph 994.4mb 36f 31f
2:54 13 14 mph 994.6mb 36f 31f
2:48 13 15 mph 994.9mb 36f 31f
2:42 9 13 mph 995.4mb 36f 31f
2:36 13 14 mph 995.5mb 36f 31f
2:30 11 13 mph 995.7mb 36f 31f
2:24 10 11 mph 995.8mb 36f 31f
2:18 10 11 mph 996mb 36f 32f
2:12 9 10 mph 996.4mb 36f 32f
2:06 7 9 mph 996.8mb 36f 31f
2:00 8
mph
996.8mb 36f 31f
1:54 7 8 mph 997.2mb 36f 31f
1:48 6 8 mph 997.4mb 36f 31f
1:42 6 8 mph 997.5mb 36f 32f
1:36 7 8 mph 997.6mb 36f 31f
1:30 7 8 mph 997.6mb 36f 31f
1:24 6
mph
998.3mb 37f 31f
1:18 3 5 mph 998.3mb 37f 31f
1:12 5 6 mph 998.8mb 37f 31f
1:06 3 6 mph 998.9mb 37f 31f
1:00 5 6 mph 999.6mb 37f 32f
12:54 5 6 mph 999.5mb 37f 31f
12:48 5 6 mph 999.3mb 37f 32f
12:42 5 6 mph 999.8mb 37f 32f
12:36 3
mph
999.8mb 37f 32f
12:30 2 5 mph 1000.4mb 37f 32f
12:24 5
mph
1000.6mb 37f 32f
12:18 3 5 mph 1000.9mb 37f 32f
12:12 3 5 mph 1001.3mb 37f 32f
12:06 3 5 mph 1001.5mb 37f 32f
12:00 5
mph
1001.7mb 37f 32f
11:54 5
mph
1001.9mb 37f 32f
11:48 3 5 mph 1001.7mb 37f 33f
11:42 3 5 mph 1002.1mb 37f 33f
11:36 2 5 mph 1002.4mb 37f 33f
11:30 3
mph
1002.7mb 37f 34f
11:24 1 3 mph 1002.7mb 37f 34f
11:18 1 2 mph 1002.6mb 37f 35f
11:12  -  2 mph 1002.7mb 37f 35f
11:06  -  3 mph 1003.1mb 37f 35f
11:00 1 5 mph 1003.4mb 37f 35f
10:54 2 5 mph 1003.4mb 37f 35f
10:48 5
mph
1003.5mb 37f 35f
10:42 5 6 mph 1003.7mb 37f 35f
10:36 1 7 mph 1003.9mb 37f 35f
10:30 3 8 mph 1004.1mb 37f 35f
10:24 3 6 mph 1004.1mb 37f 34f
10:18 3
mph
1004.3mb 37f 34f
10:12 2 5 mph 1004.6mb 37f 34f
10:06 3 5 mph 1004.7mb 37f 34f
10:00 3 6 mph 1004.8mb 37f 34f
9:54 3 5 mph 1005mb 37f 34f
9:48 3 5 mph 1005.1mb 37f 34f
9:42 2 3 mph 1005.2mb 37f 34f
9:36 3 5 mph 1005.2mb 37f 33f
9:30 2 3 mph 1005.2mb 37f 33f
9:24 2 3 mph 1005.2mb 37f 33f
9:18 1 5 mph 1005.3mb 37f 33f
9:12 3 6 mph 1005.5mb 37f 33f
9:06  -  3 mph 1005.4mb 37f 32f
9:00 2 6 mph 1005.5mb 37f 32f
8:54 3 5 mph 1005.8mb 36f 32f
8:48 2 7 mph 1005.8mb 36f 32f
8:42 3 7 mph 1005.9mb 36f 32f
8:36 7 8 mph 1006.1mb 36f 32f
8:30 3 8 mph 1006.2mb 36f 32f
8:24 7 9 mph 1006.4mb 36f 32f
8:18 6 8 mph 1006.4mb 36f 32f
8:12 6 9 mph 1006.5mb 36f 32f
8:06 6 10 mph 1006.8mb 36f 32f
8:00 7 9 mph 1006.8mb 36f 32f
7:54 6 13 mph 1006.9mb 36f 32f
7:48 7 9 mph 1007mb 36f 32f
7:42 5 8 mph 1007.3mb 36f 31f
7:36 5 7 mph 1007.1mb 36f 31f
7:30 3 6 mph 1007.1mb 36f 31f
7:24 5 7 mph 1007.2mb 36f 31f
7:18 5 7 mph 1007.2mb 36f 31f
7:12 3 8 mph 1007mb 36f 31f
7:06 6 7 mph 1007.1mb 36f 31f
7:00 3 5 mph 1007.2mb 36f 30f
6:54 3 6 mph 1007.3mb 36f 30f
6:48 2 3 mph 1007.1mb 36f 31f
6:42  -  5 mph 1007mb 36f 31f
6:36 3 5 mph 1007.1mb 36f 31f
6:30 2 6 mph 1007mb 36f 31f
6:24 3 6 mph 1007mb 36f 31f
6:18 5 6 mph 1006.9mb 36f 31f
6:12 5
mph
1006.9mb 36f 31f
6:06 5 6 mph 1006.9mb 36f 31f
6:00 3 6 mph 1006.7mb 36f 31f
5:54 3 6 mph 1006.5mb 36f 32f
5:48 5 7 mph - 36f -
5:42 5 6 mph - 36f -
5:36 2 6 mph - 36f -
5:30 6
mph
1007.2mb 36f 31f
5:24 5 6 mph 1007mb 36f 32f
5:18 3 6 mph 1007.1mb 36f 31f
5:12 3 7 mph 1007.1mb 36f 31f
5:06 6 7 mph 1007mb 36f 31f
5:00 6 7 mph 1007.1mb 36f 31f
4:54 6 7 mph 1007.2mb 36f 31f
4:48 5 6 mph 1007.3mb 36f 31f
4:42 5 6 mph 1007.4mb 36f 31f
4:36 3 5 mph 1007.5mb 36f 32f
4:30 2 5 mph 1007.5mb 36f 32f
4:24 2 5 mph 1007.5mb 37f 32f
4:18 3 5 mph 1007.5mb 37f 31f
4:12  -  5 mph 1007.6mb 37f 31f
4:06 2 6 mph 1007.8mb 36f 31f
4:00 3 8 mph 1007.9mb 36f 31f
3:54 3 6 mph 1008mb 37f 31f
3:48 6 7 mph 1008.1mb 36f 31f
3:42 6 8 mph 1008.2mb 37f 32f
3:36 7 8 mph 1008.3mb 37f 31f
3:30 5 9 mph 1008.5mb 36f 31f
3:24 6 9 mph 1008.5mb 37f 31f
3:18 6 7 mph 1008.7mb 37f 31f
3:12 6
mph
1008.7mb 37f 31f
3:06 5 6 mph 1008.8mb 37f 32f
3:00 2 3 mph 1008.8mb 37f 31f
2:54 1 7 mph 1009mb 37f 31f
2:48 7 9 mph 1009mb 37f 32f
2:42 7 9 mph 1009mb 37f 32f
2:36 7 10 mph 1009mb 37f 32f
2:30 5 8 mph 1009.2mb 37f 32f
2:24 6 8 mph 1009.4mb 37f 32f
2:18 6 9 mph 1009.4mb 36f 32f
2:12 6 8 mph 1009.4mb 37f 32f
2:06 5 10 mph 1009.3mb 37f 32f
2:00 6 9 mph 1009.4mb 36f 32f
1:54 6 10 mph 1009.4mb 37f 32f
1:48 6 10 mph 1009.5mb 37f 32f
1:42 2 6 mph 1009.7mb 37f 31f
1:36 3 7 mph 1009.7mb 37f 31f
1:30 3 6 mph 1009.8mb 37f 31f
1:24 5 6 mph 1009.7mb 36f 32f
1:18 3 5 mph 1009.7mb 37f 32f
1:12 3 6 mph 1009.8mb 37f 32f
1:06 3 6 mph 1010mb 38f 32f
1:00 3 7 mph 1010.2mb 38f 32f
12:54 2 9 mph 1010.2mb 38f 32f
12:48 3 5 mph 1010.2mb 38f 33f
12:42 1 5 mph 1010.3mb 38f 33f
12:36 5 7 mph 1010.4mb 38f 33f
12:30 6 7 mph 1010.6mb 38f 33f
12:24 5 7 mph 1010.6mb 38f 33f
12:18 3 5 mph 1010.7mb 38f 33f
12:12 3 5 mph 1010.8mb 38f 33f
12:06 2 5 mph 1010.9mb 38f 33f
12:00 2 3 mph 1011mb 38f 33f
Sex 01/23 11:54  -  3 mph 1011.1mb 38f 32f
11:48 3 6 mph 1011.2mb 38f 33f
11:42 3 7 mph 1011.3mb 38f 33f
11:36  -  3 mph 1011.3mb 37f 32f
11:30  -  3 mph 1011.4mb 37f 32f
11:24 3 6 mph 1011.6mb 38f 33f
11:18 2 6 mph 1011.7mb 38f 33f
11:12 2 8 mph 1011.7mb 37f 33f
11:06 5 8 mph 1011.9mb 37f 33f
11:00 5 9 mph 1011.9mb 37f 33f
10:54 5 9 mph 1012mb 37f 33f
10:48 7 9 mph 1012.2mb 37f 33f
10:42 5 8 mph 1012.2mb 37f 33f
10:36 5 8 mph 1012.2mb 37f 33f
10:30 3 7 mph 1012.2mb 37f 33f
10:24 5 9 mph 1012.1mb 37f 33f
10:18  -  mph 1012.1mb 37f 33f
10:12  -  mph 1012.1mb 37f 33f
10:06  -  mph 1012.1mb 37f 33f
10:00 3 8 mph 1012.2mb - 33f
9:54 1 6 mph 1012.3mb - 32f
9:48 2 6 mph 1012.5mb 37f 32f
9:42 5 8 mph 1012.7mb 37f 32f
9:36 3 7 mph 1012.7mb 36f 32f
9:30 3 6 mph 1012.8mb 37f 32f
9:24 3 6 mph 1013.1mb 37f 32f
9:18 1 3 mph 1013.3mb 37f 31f
9:12 1 5 mph 1013.3mb 37f 31f
9:06 3 7 mph 1013.5mb 37f 31f
9:00 1 6 mph 1013.4mb 37f 31f
8:54 1 7 mph 1013.6mb 37f 31f
8:48 6 7 mph 1013.7mb 37f -
8:42 5 9 mph 1013.9mb 37f -
8:36 3 5 mph 1014mb 36f -
8:30  -  2 mph 1014mb 37f 30f
8:24 3 5 mph 1014.2mb 37f 30f
8:18  -  3 mph 1014.2mb 36f 30f
8:12 1 7 mph 1014.2mb 36f 29f
8:06 6 8 mph 1014.3mb 36f 29f
8:00 5 9 mph 1014.4mb 37f 29f
7:54 7 14 mph 1014.5mb 36f 29f
7:48 5 7 mph 1014.4mb 36f 29f
7:42 5 9 mph 1014.3mb 36f 29f
7:36 6 9 mph 1014.4mb 36f 29f
7:30 6 8 mph 1014.4mb 36f 29f
7:24 6 9 mph 1014.5mb 36f 29f
7:18 6 10 mph 1014.6mb 36f 29f
7:12 3 6 mph 1014.7mb 36f 29f
7:06 3 7 mph 1014.7mb 36f 29f
7:00 6 9 mph 1014.8mb 36f 29f
6:54 3 6 mph 1014.8mb 36f 29f
6:48 3 6 mph 1014.9mb 36f 28f
6:42 3 5 mph 1015mb 36f 28f
6:36 3 6 mph 1015mb 36f 28f
6:30 5 6 mph 1015mb 36f 28f
6:24 3 5 mph 1015mb 36f 28f
6:18 3 6 mph 1015mb 36f 28f
6:12 2 7 mph 1015mb 36f 28f
6:06 6 8 mph 1015.1mb 36f 29f
6:00 2 5 mph 1015mb 36f 28f
5:54 2 3 mph 1015.1mb 36f 28f
5:48 2 3 mph 1015.2mb 36f 28f
5:42 1 3 mph 1015.2mb 36f 29f
5:36 2 6 mph 1015.2mb 36f 29f
5:30 3 5 mph 1015.3mb 36f 28f
5:24 2 3 mph 1015.4mb 36f 28f
5:18 2 5 mph 1015.5mb 36f 28f
5:12 2 6 mph 1015.5mb 36f 28f
5:06 5 8 mph 1015.5mb 36f 29f
5:00 6 9 mph 1015.6mb 36f 29f
4:54 8 13 mph 1015.6mb 36f 29f
4:48 9 15 mph 1015.6mb 36f 29f
4:42 10 15 mph 1015.5mb 36f 29f
4:36 7 15 mph 1015.5mb 36f 29f
4:30 8 14 mph 1015.4mb 36f 29f
4:24 8 14 mph 1015.3mb 36f 29f
4:18 9 13 mph 1015.4mb 37f 29f
4:12 9 13 mph 1015.5mb 37f 29f
4:06 10 16 mph 1015.6mb 37f 29f
4:00 8 16 mph 1015.7mb 37f 29f
3:54 10 16 mph 1015.7mb 37f 29f
3:48 9 14 mph 1015.9mb 37f 29f
3:42 10 14 mph 1015.9mb 37f 29f
3:36 13 16 mph 1016.1mb 37f 29f
3:30 11 17 mph 1016.1mb 37f 29f
3:24 13 18 mph 1016.2mb 37f 29f
3:18 9 17 mph 1016.4mb 37f 30f
3:12 14 21 mph 1016.6mb 37f 30f
3:06 11 17 mph 1016.7mb 37f 30f
3:00 10 17 mph 1016.7mb 37f 30f
2:54 10 15 mph 1016.6mb 37f 30f
2:48 11 18 mph 1016.8mb 37f 30f
2:42 7 13 mph 1016.9mb 37f 30f
2:36 10 16 mph 1016.9mb 37f 29f
2:30 13 17 mph 1017mb 37f 29f
2:24 11 18 mph 1017.1mb 37f 29f
2:18 9 15 mph 1017.1mb 37f 29f
2:12 10 16 mph 1017.1mb 37f 29f
2:06 10 15 mph 1017.1mb 37f 29f
2:00 7 11 mph 1017.1mb 37f 30f
1:54 6 14 mph 1017.2mb 37f 30f
1:48 9 18 mph 1017.3mb 36f 29f
1:42 16 18 mph 1017.3mb 36f 29f
1:36 10 20 mph 1017.3mb 36f 29f
1:30 11 20 mph 1017.4mb 36f 29f
1:24 8 20 mph 1017.5mb 36f 29f
1:18 15 17 mph 1017.6mb 36f 28f
1:12 15 18 mph 1017.8mb 36f 28f
1:06 13 17 mph 1018mb 36f 28f
1:00 14 22 mph 1018.1mb 36f 28f
12:54 15 21 mph 1018.3mb 36f 28f
12:48 11 18 mph 1018.4mb 36f 28f
12:42 16 21 mph 1018.4mb 36f 27f
12:36 11 16 mph 1018.6mb 36f 28f
12:30 10 17 mph 1018.6mb 36f 28f
12:24 13 15 mph 1018.7mb 36f 27f
12:18 7 14 mph 1018.8mb 36f 28f
12:12 8 16 mph 1019.1mb 36f 27f
12:06 10 16 mph 1019.2mb 36f 27f
12:00 11 16 mph 1019.3mb 37f 27f
11:54 11 15 mph 1019.4mb 37f 27f
11:48 13 17 mph 1019.5mb 37f 27f
11:42 9 14 mph 1019.6mb 37f 27f
11:36 11 17 mph 1019.8mb 37f 26f
11:30 11 17 mph 1019.9mb 37f 26f
11:24 9 17 mph 1020.2mb 37f 26f
11:18 10 17 mph 1020.4mb 37f 26f
11:12 11 14 mph 1020.5mb 37f 26f
11:06 10 15 mph 1020.5mb 37f 26f
11:00 13 18 mph - - 26f
10:54 10 15 mph - - 26f
10:48 9 14 mph 1020.8mb 36f 26f
10:42 10 14 mph 1020.8mb 36f 25f
10:36 8 14 mph 1020.8mb 36f 26f
10:30 9 15 mph 1020.8mb 36f 25f
10:24 10 17 mph 1020.9mb 37f 25f
10:18 9 14 mph 1021.1mb 37f 25f
10:12 10 16 mph 1021.2mb 37f 25f
10:06 10 14 mph 1021.3mb 37f 24f
10:00 9 15 mph 1021.4mb 37f 24f
9:54 9 14 mph 1021.4mb 37f 24f
9:48  -  mph - - 24f
9:42  -  mph - - 24f
9:36  -  mph - - 23f
9:30 11 13 mph 1021.4mb 37f 23f
9:24 13 15 mph 1021.4mb 37f 23f
9:18 10 16 mph 1021.4mb 37f 23f
9:12 13 17 mph 1021.5mb 37f 22f
9:06 14 17 mph 1021.6mb 36f 22f
9:00 13 16 mph 1021.6mb 37f 22f
8:54 9 13 mph 1021.6mb 37f 22f
8:48 9 13 mph 1021.7mb 36f 22f
8:42 10 14 mph 1021.8mb 37f 22f
8:36 10 14 mph 1021.8mb 36f 22f
8:30 13 15 mph 1021.9mb 36f 21f
8:24 13 16 mph 1021.9mb 36f 21f
8:18 13 16 mph 1021.8mb 36f 21f
8:12 10 15 mph 1021.9mb 36f 21f
8:06 7 13 mph 1021.7mb 37f 21f
8:00 7 8 mph 1021.6mb 37f 21f
7:54 7 10 mph 1021.6mb 37f 20f
7:48 8 10 mph 1021.4mb 37f 20f
7:42 7 9 mph 1021.5mb 37f 19f
7:36 7 9 mph 1021.5mb 36f 19f
7:30 6 9 mph 1021.6mb 36f 19f
7:24 3 7 mph 1021.5mb 36f 19f
7:18 6 8 mph 1021.5mb 36f 19f
7:12 6 8 mph 1021.5mb 36f 19f
7:06 5 8 mph 1021.6mb 36f 19f
7:00 6 10 mph 1021.6mb 36f 19f
6:54 7 9 mph 1021.5mb 36f 19f
6:48 8 13 mph 1021.5mb 36f 19f
6:42 10 13 mph 1021.5mb 36f 19f
6:36 9 14 mph 1021.5mb 36f 19f
6:30 11 16 mph 1021.5mb 36f 20f
6:24 13 16 mph 1021.4mb 36f 20f
6:18 15 17 mph 1021.5mb 36f 20f
6:12 13 16 mph 1021.6mb 36f 20f
6:06 9 14 mph 1021.7mb 36f 20f
6:00 9 13 mph 1021.7mb 36f 19f
5:54 9 13 mph 1021.8mb 36f 19f
5:48 11 13 mph 1021.8mb 36f 19f
5:42 13 15 mph 1021.8mb 36f 19f
5:36 11 14 mph 1021.6mb 36f 19f
5:30 10 13 mph 1021.6mb 36f 19f
5:24 13 15 mph 1021.7mb 36f 20f
5:18 11 15 mph 1021.8mb - 19f
5:12 13 15 mph 1021.6mb - 20f
5:06 11 16 mph 1021.6mb - 20f
5:00 13 18 mph 1021.7mb 36f 20f
4:54 14 17 mph 1021.6mb 36f 20f
4:48 14 16 mph 1021.6mb 36f 19f
4:42 14 17 mph 1021.5mb 36f 20f
4:36 15 20 mph 1021.4mb 36f 20f
4:30 15 18 mph 1021.4mb 36f 20f
4:24 16 20 mph 1021.2mb 36f 20f
4:18 16 20 mph 1021.2mb 36f 21f
4:12 17 21 mph 1021.2mb 36f 21f
4:06 15 18 mph 1021.1mb 36f 21f
4:00 14 18 mph 1021.1mb 36f 21f
3:54 16 20 mph 1021.2mb 36f 21f
3:48 16 18 mph 1021.1mb 36f 21f
3:42 16 21 mph 1021.1mb 36f 21f
3:36 17 22 mph 1021.1mb 36f 21f
3:30 17 21 mph 1021mb 36f 22f
3:24 16 20 mph 1021mb 36f 21f
3:18 16 22 mph 1020.9mb 36f 22f
3:12 15 20 mph 1020.9mb 36f 22f
3:06 15 17 mph 1020.8mb 36f 21f
3:00 15 18 mph 1020.8mb 36f 21f
2:54 16 18 mph 1020.9mb 36f 21f
2:48 15 20 mph 1020.9mb 36f 21f
2:42 13 18 mph 1021mb 36f 21f
2:36 13 17 mph 1021mb 36f 21f
2:30 13 16 mph 1021mb 36f 21f
2:24 14 17 mph 1020.9mb 36f 21f
2:18 11 14 mph 1020.8mb 36f 21f
2:12 11 14 mph 1020.8mb 36f 21f
2:06 14 16 mph 1020.8mb 36f 22f
2:00 13 16 mph 1020.8mb 36f 22f
1:54 14 17 mph 1020.7mb 36f 22f
1:48 14 17 mph 1020.6mb 36f 22f
1:42 13 14 mph 1020.5mb 36f 22f
1:36 10 13 mph 1020.5mb 36f 22f
1:30 11 13 mph 1020.5mb 36f 22f
1:24 11 14 mph 1020.3mb 36f 22f
1:18 11 16 mph 1020.4mb 36f 22f
1:12 14 17 mph 1020.3mb 36f 23f
1:06 13 16 mph 1020.2mb 36f 23f
1:00 14 17 mph 1020.2mb 36f 23f
12:54 16 21 mph 1020.2mb 36f 24f
12:48 14 17 mph 1020.2mb 36f 24f
12:42 13 15 mph 1020.2mb 36f 24f
12:36 11 14 mph 1020.1mb 36f 24f
12:30 13 15 mph 1020.1mb 36f 24f
12:24 11 15 mph 1019.9mb 36f 24f
12:18 13 15 mph 1019.9mb 37f 24f
12:12 10 11 mph 1019.9mb 37f 24f
12:06 9 11 mph 1020.1mb 37f 24f
12:00 8 13 mph 1020.1mb 37f 25f
Qui 01/22 11:54 8 11 mph 1020.2mb 38f 25f
11:48 7 9 mph 1020.2mb 38f 25f
11:42 6 8 mph 1020.1mb 38f 24f
11:36 6 8 mph 1020.3mb 38f 24f
11:30 6 8 mph 1020.4mb 38f 24f
11:24 5 7 mph 1020.4mb 38f 24f
11:18 5 6 mph 1020.4mb 38f 24f
11:12 5 7 mph 1020.3mb 38f 24f
11:06 5 6 mph 1020.3mb 38f 24f
11:00 3 6 mph 1020.3mb 38f 24f
10:54 5 7 mph 1020.4mb 38f 24f
10:48 3 7 mph 1020.5mb 37f 24f
10:42 5 6 mph 1020.6mb 37f 24f
10:36 5 8 mph 1020.5mb 37f 23f
10:30 5 7 mph 1020.5mb - 24f
10:24 3 6 mph 1020.5mb - 24f
10:18 3 5 mph 1020.5mb 37f 24f
10:12 2 5 mph 1020.6mb 37f 23f
10:06 3 6 mph 1020.5mb 37f 23f
10:00 3 7 mph 1020.5mb 37f 24f